Tracking 33723 objects as of 10-Apr-2026
HD Live streaming from Space Station
objects crossing your sky now

CENTISPACE-1 S12

Track CENTISPACE-1 S12 now!
10-day predictions


NORAD ID: 62581
Int'l Code: 2025-007G
Perigee: 958.2 km
Apogee: 979.7 km
Inclination: 55.0 °
Period: 104.3 minutes
Semi major axis: 7339 km
RCS: Unknown
Launch date: January 13, 2025
Source: People's Republic of China (PRC)
Launch site: Yellow Sea Launch Area, China (YSLA)
Your satellite tracking list
Your tracking list is empty




NASA's NSSDC Master Catalog

Two Line Element Set (TLE):
1 62581U 25007G   26100.25694963 -.00000064  00000-0  73040-4 0  9998
2 62581  54.9760 168.9674 0014657   0.4849 359.6119 13.80590534 65355
Source of the keplerian elements: AFSPC